CW7104 Weather Reports


Display with metric or nautical units.
time (UTC)temp
F
wind
direction
speed
MPH
gust
MPH
rain 1hr
in
rain 24hr
in
rain mn
in
humidity
%
barometer
mb
20260901063404 73 205 0.0 0.0 0.00 0.00 0.00 79 1016.7
20260901062905 73 205 0.0 0.0 0.00 0.00 0.00 79 1016.7
20260901061905 74 205 0.0 0.0 0.00 0.00 0.00 79 1016.8
20260901061405 74 205 0.0 0.0 0.00 0.00 0.00 79 1016.8
20260901060905 74 205 0.0 0.0 0.00 0.00 0.00 79 1016.9
20260901060405 74 205 0.0 0.0 0.00 0.00 0.00 79 1016.9
20260901055905 75 205 0.0 0.0 0.00 0.00 0.00 79 1016.9
20260901055405 75 205 0.0 0.0 0.00 0.00 0.00 79 1016.9
20260901054905 75 205 0.0 0.0 0.00 0.00 0.00 79 1016.9
20260901054405 75 205 0.0 0.0 0.00 0.00 0.00 79 1016.9
20260901053905 75 205 0.0 0.0 0.00 0.00 0.00 79 1016.9
20260901053405 75 205 0.0 0.0 0.00 0.00 0.00 79 1016.9
20260901052905 75 205 0.0 0.0 0.00 0.00 0.00 79 1016.8
20260901052405 75 205 0.0 0.0 0.00 0.00 0.00 78 1016.8
20260901051905 76 205 0.0 0.0 0.00 0.00 0.00 78 1016.8
20260901050905 76 205 0.0 0.0 0.00 0.00 0.00 78 1016.7
20260901050405 76 205 0.0 0.0 0.00 0.00 0.00 78 1016.7
20260901045405 76 205 0.0 0.0 0.00 0.00 0.00 77 1016.6
20260901044905 77 205 0.0 0.0 0.00 0.00 0.00 77 1016.5
20260901044405 77 205 0.0 0.0 0.00 0.00 0.00 77 1016.5
20260901043904 77 205 0.0 0.0 0.00 0.00 0.00 76 1016.5
20260901043405 77 205 0.0 0.0 0.00 0.00 0.00 76 1016.5
20260901042905 77 205 0.0 0.0 0.00 0.00 0.00 75 1016.6
20260901041905 77 205 0.0 0.0 0.00 0.00 0.00 75 1016.6
20260901041404 77 205 0.0 0.0 0.00 0.00 0.00 75 1016.6
20260901040905 77 205 0.0 0.0 0.00 0.00 0.00 75 1016.6
20260901040405 78 205 0.0 0.0 0.00 0.00 0.00 74 1016.6
20260901035905 78 205 0.0 0.0 0.00 0.00 0.00 74 1016.7
20260901035405 78 205 0.0 0.0 0.00 0.00 0.00 73 1016.6
20260901034905 78 205 0.0 0.0 0.00 0.00 0.00 73 1016.7
20260901034405 78 205 0.0 0.0 0.00 0.00 0.00 73 1016.7
20260901033405 78 205 0.0 0.0 0.00 0.00 0.00 72 1016.8
20260901032905 78 205 0.0 0.0 0.00 0.00 0.00 72 1016.8
20260901032405 79 205 0.0 0.0 0.00 0.00 0.00 72 1016.8
20260901031904 79 205 0.0 0.0 0.00 0.00 0.00 72 1016.9
20260901031405 79 205 0.0 0.0 0.00 0.00 0.00 72 1016.8
20260901030905 79 205 0.0 0.0 0.00 0.00 0.00 71 1016.9
20260901030405 79 205 0.0 0.0 0.00 0.00 0.00 71 1016.9
20260901024905 80 205 0.0 0.0 0.00 0.00 0.00 70 1016.7
20260901024405 80 205 0.0 0.0 0.00 0.00 0.00 70 1016.7
20260901023905 80 205 0.0 0.0 0.00 0.00 0.00 70 1016.7
20260901023405 80 205 0.0 0.0 0.00 0.00 0.00 70 1016.8
20260901022904 80 205 0.0 0.0 0.00 0.00 0.00 69 1016.8
20260901021905 81 205 0.0 0.0 0.00 0.00 0.00 69 1016.6
20260901021404 81 205 0.0 0.0 0.00 0.00 0.00 69 1016.6
20260901020905 81 205 0.0 0.0 0.00 0.00 0.00 69 1016.7
20260901020405 81 205 0.0 0.0 0.00 0.00 0.00 69 1016.7
20260901015904 81 205 0.0 0.0 0.00 0.00 0.00 68 1016.7
20260901014404 82 205 0.0 0.0 0.00 0.00 0.00 66 1016.5
20260901013905 82 205 0.0 0.0 0.00 0.00 0.00 65 1016.5
20260901013405 83 205 0.0 0.0 0.00 0.00 0.00 65 1016.4
20260901012904 83 205 0.0 0.0 0.00 0.00 0.00 64 1016.4
20260901012405 83 205 0.0 0.0 0.00 0.00 0.00 63 1016.4
20260901011904 84 205 0.0 0.0 0.00 0.00 0.00 63 1016.2
20260901010905 84 205 0.0 0.0 0.00 0.00 0.00 62 1016.1
20260901010404 85 205 0.0 0.0 0.00 0.00 0.00 61 1016.0
20260901005905 85 205 0.0 0.0 0.00 0.00 0.00 61 1015.9
20260901004905 86 205 0.0 0.0 0.00 0.00 0.00 60 1015.9
20260901004405 86 205 0.0 0.0 0.00 0.00 0.00 59 1015.9
20260901003905 87 205 0.0 0.0 0.00 0.00 0.00 58 1016.0
20260901003405 87 205 0.0 0.0 0.00 0.00 0.00 57 1015.9
20260901002904 87 205 0.0 0.0 0.00 0.00 0.00 57 1015.9
20260901001905 88 205 0.0 0.0 0.00 0.00 0.00 56 1015.8
20260901001405 88 205 0.0 0.0 0.00 0.00 0.00 55 1015.9
20260901000904 89 205 0.0 0.0 0.00 0.00 0.00 55 1015.8
20260901000406 89 217 0.0 0.0 0.00 0.00 0.00 54 1015.8
20260831235904 90 205 0.0 0.0 0.00 0.00 0.00 53 1015.8
20260831235404 90 215 0.0 0.0 0.00 0.00 0.00 53 1015.8
20260831234905 91 214 0.0 0.0 0.00 0.00 0.00 52 1015.7
20260831234404 91 158 0.0 2.0 0.00 0.00 0.00 51 1015.7
20260831233904 92 180 0.0 0.0 0.00 0.00 0.00 50 1015.7
20260831233404 92 227 2.0 8.0 0.00 0.00 0.00 50 1015.7
20260831232905 92 219 1.0 10.0 0.00 0.00 0.00 49 1015.7
20260831232405 92 203 3.0 7.0 0.00 0.00 0.00 49 1015.7
20260831231904 92 192 1.0 10.0 0.00 0.00 0.00 49 1015.7
20260831230904 92 141 1.0 8.0 0.00 0.00 0.00 48 1015.8
20260831230405 92 206 1.0 6.0 0.00 0.00 0.00 48 1015.8
20260831225904 92 228 2.0 9.0 0.00 0.00 0.00 47 1015.8
20260831225404 92 222 2.0 12.0 0.00 0.00 0.00 48 1015.8
20260831224904 93 151 3.0 9.0 0.00 0.00 0.00 48 1015.9
20260831223905 94 205 4.0 9.0 0.00 0.00 0.00 47 1015.9
20260831223405 94 190 0.0 12.0 0.00 0.00 0.00 46 1015.9
20260831222904 95 182 1.0 6.0 0.00 0.00 0.00 44 1015.8
20260831221905 96 192 2.0 9.0 0.00 0.00 0.00 42 1015.9
20260831221405 97 240 3.0 12.0 0.00 0.00 0.00 41 1015.9
20260831220904 97 217 2.0 7.0 0.00 0.00 0.00 42 1015.9
20260831215905 97 191 1.0 10.0 0.00 0.00 0.00 42 1015.9
20260831215405 97 242 0.0 9.0 0.00 0.00 0.00 43 1015.9
20260831214905 96 173 1.0 6.0 0.00 0.00 0.00 43 1015.9
20260831213904 97 167 1.0 12.0 0.00 0.00 0.00 43 1016.0
20260831213404 97 185 3.0 10.0 0.00 0.00 0.00 43 1016.0
20260831212404 97 157 4.0 9.0 0.00 0.00 0.00 44 1016.1
20260831211904 97 134 1.0 8.0 0.00 0.00 0.00 45 1016.1
20260831211405 98 222 4.0 12.0 0.00 0.00 0.00 42 1016.1
20260831210904 98 160 1.0 8.0 0.00 0.00 0.00 43 1016.2
20260831205904 98 191 3.0 9.0 0.00 0.00 0.00 43 1016.2
20260831205404 98 184 2.0 8.0 0.00 0.00 0.00 45 1016.3
20260831204905 97 213 1.0 3.0 0.00 0.00 0.00 45 1016.3
20260831203904 97 231 3.0 12.0 0.00 0.00 0.00 44 1016.5
20260831203404 98 205 4.0 10.0 0.00 0.00 0.00 44 1016.5
20260831202404 97 183 1.0 6.0 0.00 0.00 0.00 45 1016.7
20260831201904 97 196 1.0 7.0 0.00 0.00 0.00 47 1016.7
20260831200904 97 135 1.0 8.0 0.00 0.00 0.00 45 1016.8
20260831195904 97 172 5.0 10.0 0.00 0.00 0.00 44 1017.0
20260831195404 97 158 2.0 7.0 0.00 0.00 0.00 47 1017.1
20260831194904 97 165 2.0 7.0 0.00 0.00 0.00 46 1017.1
20260831194404 97 140 0.0 9.0 0.00 0.00 0.00 46 1017.1
20260831193904 96 193 2.0 9.0 0.00 0.00 0.00 45 1017.1
20260831192404 96 197 4.0 9.0 0.00 0.00 0.00 46 1017.2
20260831191904 96 179 1.0 8.0 0.00 0.00 0.00 46 1017.1
20260831191404 96 222 5.0 8.0 0.00 0.00 0.00 45 1017.2
20260831190905 96 175 4.0 12.0 0.00 0.00 0.00 47 1017.2
20260831190404 96 196 2.0 9.0 0.00 0.00 0.00 47 1017.3
20260831185904 96 152 3.0 9.0 0.00 0.00 0.00 48 1017.4
20260831185404 95 180 2.0 8.0 0.00 0.00 0.00 48 1017.4
20260831184904 95 251 1.0 7.0 0.00 0.00 0.00 50 1017.4
20260831184405 95 219 2.0 10.0 0.00 0.00 0.00 50 1017.6
20260831183904 95 239 2.0 9.0 0.00 0.00 0.00 49 1017.5
20260831183404 95 188 1.0 8.0 0.00 0.00 0.00 51 1017.6
20260831182904 95 227 3.0 9.0 0.00 0.00 0.00 49 1017.7
20260831182404 95 186 0.0 10.0 0.00 0.00 0.00 49 1017.7
20260831181904 95 168 2.0 8.0 0.00 0.00 0.00 50 1017.8
20260831181404 94 229 2.0 10.0 0.00 0.00 0.00 50 1017.9
20260831180904 94 197 1.0 10.0 0.00 0.00 0.00 52 1017.9
20260831180404 94 193 4.0 8.0 0.00 0.00 0.00 51 1017.9
20260831175904 94 170 4.0 9.0 0.00 0.00 0.00 50 1017.9
20260831175405 94 245 3.0 9.0 0.00 0.00 0.00 50 1018.0
20260831173904 93 257 2.0 9.0 0.00 0.00 0.00 53 1018.2
20260831173404 94 210 4.0 10.0 0.00 0.00 0.00 52 1018.2
20260831171904 93 219 2.0 10.0 0.00 0.00 0.00 53 1018.2
20260831171404 93 238 2.0 7.0 0.00 0.00 0.00 53 1018.2
20260831170904 93 235 2.0 8.0 0.00 0.00 0.00 54 1018.3
20260831170404 93 215 2.0 7.0 0.00 0.00 0.00 53 1018.4
20260831165904 93 192 3.0 9.0 0.00 0.00 0.00 54 1018.5
20260831165404 93 189 2.0 8.0 0.00 0.00 0.00 53 1018.5
20260831164904 92 185 3.0 9.0 0.00 0.00 0.00 54 1018.5
20260831164404 92 192 2.0 10.0 0.00 0.00 0.00 53 1018.6
20260831163904 92 243 3.0 8.0 0.00 0.00 0.00 55 1018.6
20260831163404 92 207 3.0 10.0 0.00 0.00 0.00 54 1018.6
20260831162404 92 176 3.0 10.0 0.00 0.00 0.00 56 1018.6
20260831161904 91 190 3.0 10.0 0.00 0.00 0.00 55 1018.7
20260831161405 91 212 2.0 8.0 0.00 0.00 0.00 55 1018.8
20260831160404 91 207 3.0 12.0 0.00 0.00 0.00 57 1018.8
20260831155904 91 218 5.0 9.0 0.00 0.00 0.00 56 1018.8
20260831155404 91 170 1.0 10.0 0.00 0.00 0.00 57 1018.8
20260831154904 91 201 1.0 7.0 0.00 0.00 0.00 58 1018.8
20260831153904 90 246 2.0 9.0 0.00 0.00 0.00 59 1018.8
20260831153404 89 179 0.0 7.0 0.00 0.00 0.00 60 1018.7
20260831152904 89 240 1.0 6.0 0.00 0.00 0.00 60 1018.7
20260831151904 88 207 1.0 10.0 0.00 0.00 0.00 61 1018.9
20260831151404 88 209 4.0 8.0 0.00 0.00 0.00 62 1018.9
20260831150904 88 233 0.0 6.0 0.00 0.00 0.00 62 1018.8
20260831150404 87 169 2.0 8.0 0.00 0.00 0.00 63 1018.9
20260831145904 86 170 1.0 8.0 0.00 0.00 0.00 65 1018.9
20260831144404 85 240 4.0 9.0 0.00 0.00 0.00 67 1018.7
20260831143403 84 190 2.0 10.0 0.00 0.00 0.00 67 1018.7
20260831142904 84 218 1.0 5.0 0.00 0.00 0.00 68 1018.6
20260831142404 83 219 3.0 12.0 0.00 0.00 0.00 69 1018.6
20260831141904 83 201 1.0 8.0 0.00 0.00 0.00 69 1018.6
20260831140904 82 214 2.0 6.0 0.00 0.00 0.00 71 1018.6
20260831140404 81 190 2.0 5.0 0.00 0.00 0.00 72 1018.5
20260831135903 81 225 2.0 7.0 0.00 0.00 0.00 74 1018.5
20260831135403 80 222 2.0 7.0 0.00 0.00 0.00 75 1018.5
20260831134904 80 236 1.0 6.0 0.00 0.00 0.00 77 1018.5
20260831134404 79 238 2.0 7.0 0.00 0.00 0.00 78 1018.4
20260831133904 78 224 0.0 5.0 0.00 0.00 0.00 79 1018.4
20260831133404 78 170 0.0 0.0 0.00 0.00 0.00 80 1018.4
20260831132904 77 185 0.0 0.0 0.00 0.00 0.00 81 1018.4
20260831132404 77 153 0.0 0.0 0.00 0.00 0.00 82 1018.4
20260831131903 76 146 0.0 0.0 0.00 0.00 0.00 82 1018.4
20260831131403 76 252 0.0 0.0 0.00 0.00 0.00 82 1018.4
20260831130904 75 209 0.0 0.0 0.00 0.00 0.00 82 1018.3
20260831130404 75 209 0.0 0.0 0.00 0.00 0.00 82 1018.3
20260831125904 75 196 0.0 0.0 0.00 0.00 0.00 82 1018.3
20260831125404 74 202 0.0 0.0 0.00 0.00 0.00 82 1018.2
20260831124904 74 148 0.0 0.0 0.00 0.00 0.00 82 1018.2
20260831124403 74 149 0.0 0.0 0.00 0.00 0.00 82 1018.2
20260831123904 74 152 0.0 0.0 0.00 0.00 0.00 82 1018.1
20260831123404 73 146 0.0 0.0 0.00 0.00 0.00 82 1018.1
20260831122904 73 168 0.0 0.0 0.00 0.00 0.00 82 1018.0
20260831122404 73 160 0.0 0.0 0.00 0.00 0.00 82 1018.0
20260831121903 73 162 0.0 0.0 0.00 0.00 0.00 82 1017.9
20260831121404 73 162 0.0 0.0 0.00 0.00 0.00 82 1017.9
20260831115903 72 218 0.0 0.0 0.00 0.00 0.00 82 1017.7
20260831115404 72 227 0.0 0.0 0.00 0.00 0.00 82 1017.7
20260831114904 72 227 0.0 0.0 0.00 0.00 0.00 82 1017.7
20260831114404 71 228 0.0 0.0 0.00 0.00 0.00 82 1017.6
20260831113904 71 233 0.0 0.0 0.00 0.00 0.00 82 1017.6
20260831113403 71 233 0.0 0.0 0.00 0.00 0.00 82 1017.5
20260831112903 71 233 0.0 0.0 0.00 0.00 0.00 82 1017.4
20260831112404 70 233 0.0 0.0 0.00 0.00 0.00 82 1017.4
20260831111904 70 233 0.0 0.0 0.00 0.00 0.00 82 1017.5
20260831111404 71 233 0.0 0.0 0.00 0.00 0.00 82 1017.4
20260831110903 71 233 0.0 0.0 0.00 0.00 0.00 82 1017.4
20260831110403 71 233 0.0 0.0 0.00 0.00 0.00 82 1017.4
20260831105903 71 233 0.0 0.0 0.00 0.00 0.00 82 1017.4
20260831105404 71 233 0.0 0.0 0.00 0.00 0.00 82 1017.4
20260831104904 71 233 0.0 0.0 0.00 0.00 0.00 82 1017.4
20260831104403 71 233 0.0 0.0 0.00 0.00 0.00 82 1017.4
20260831103904 71 233 0.0 0.0 0.00 0.00 0.00 82 1017.4
20260831102903 72 233 0.0 0.0 0.00 0.00 0.00 82 1017.2
20260831102403 72 233 0.0 0.0 0.00 0.00 0.00 82 1017.1
20260831101904 72 233 0.0 0.0 0.00 0.00 0.00 82 1017.1
20260831101403 72 233 0.0 0.0 0.00 0.00 0.00 82 1017.1
20260831100904 72 233 0.0 0.0 0.00 0.00 0.00 82 1016.9
20260831100404 71 233 0.0 0.0 0.00 0.00 0.00 82 1016.9
20260831095403 71 234 0.0 0.0 0.00 0.00 0.00 82 1016.7
20260831094404 71 234 0.0 0.0 0.00 0.00 0.00 82 1016.7
20260831093904 71 234 0.0 0.0 0.00 0.00 0.00 82 1016.7
20260831093403 71 234 0.0 0.0 0.00 0.00 0.00 82 1016.7
20260831092903 71 235 0.0 0.0 0.00 0.00 0.00 82 1016.7
20260831092404 71 235 0.0 0.0 0.00 0.00 0.00 82 1016.8
20260831091904 71 235 0.0 0.0 0.00 0.00 0.00 82 1016.8
20260831091403 70 235 0.0 0.0 0.00 0.00 0.00 82 1016.8
20260831090905 70 235 0.0 0.0 0.00 0.00 0.00 82 1016.9
20260831090405 70 235 0.0 0.0 0.00 0.00 0.00 82 1016.9
20260831085905 70 235 0.0 0.0 0.00 0.00 0.00 82 1016.9
20260831084405 70 235 0.0 0.0 0.00 0.00 0.00 82 1016.9
20260831083905 70 235 0.0 0.0 0.00 0.00 0.00 82 1016.8
20260831083405 70 235 0.0 0.0 0.00 0.00 0.00 82 1016.8
20260831082906 70 234 0.0 0.0 0.00 0.00 0.00 82 1016.7
20260831082405 70 235 0.0 0.0 0.00 0.00 0.00 82 1016.7
20260831081905 70 235 0.0 0.0 0.00 0.00 0.00 82 1016.7
20260831080906 70 235 0.0 0.0 0.00 0.00 0.00 82 1016.6
20260831080405 71 235 0.0 0.0 0.00 0.00 0.00 82 1016.6
20260831075905 71 235 0.0 0.0 0.00 0.00 0.00 82 1016.6
20260831074905 71 235 0.0 0.0 0.00 0.00 0.00 82 1016.4
20260831074405 71 235 0.0 0.0 0.00 0.00 0.00 82 1016.4
20260831073905 71 235 0.0 0.0 0.00 0.00 0.00 81 1016.4
20260831073405 71 235 0.0 0.0 0.00 0.00 0.00 81 1016.5
20260831072905 71 235 0.0 0.0 0.00 0.00 0.00 81 1016.5
20260831072406 71 235 0.0 0.0 0.00 0.00 0.00 82 1016.5
20260831071905 71 235 0.0 0.0 0.00 0.00 0.00 82 1016.5
20260831071405 71 235 0.0 0.0 0.00 0.00 0.00 81 1016.5
20260831070905 71 235 0.0 0.0 0.00 0.00 0.00 81 1016.6
20260831070405 71 235 0.0 0.0 0.00 0.00 0.00 81 1016.6
20260831065905 71 235 0.0 0.0 0.00 0.00 0.00 81 1016.6
20260831065405 71 235 0.0 0.0 0.00 0.00 0.00 81 1016.7
20260831064905 71 235 0.0 0.0 0.00 0.00 0.00 81 1016.7
20260831064405 71 235 0.0 0.0 0.00 0.00 0.00 81 1016.7
20260831063905 71 235 0.0 0.0 0.00 0.00 0.00 81 1016.7